This is the latest recevied weather packets stored in our database for station/object KD9IXX-13. If no packets are shown the sender has not sent any weather packets the latest 1 day(s).
| Time | Temp. | Humidity | Pressure | Rain* | Wind** | Luminosity | Snow |
|---|---|---|---|---|---|---|---|
| 1778023202 | 12.22° C | 42% | 1009.9 hPa | 0 mm | 1.34 m/s, 305° | 46 W/m² | - |
| 1778022902 | 12.22° C | 42% | 1010.1 hPa | 0 mm | 1.34 m/s, 296° | 56 W/m² | - |
| 1778022602 | 12.22° C | 42% | 1010.2 hPa | 0 mm | 0.89 m/s, 295° | 65 W/m² | - |
| 1778022302 | 12.22° C | 42% | 1010.3 hPa | 0 mm | 1.79 m/s, 275° | 83 W/m² | - |
| 1778022002 | 12.22° C | 43% | 1010.4 hPa | 0 mm | 0.89 m/s, 307° | 73 W/m² | - |
| 1778021702 | 12.22° C | 42% | 1010.5 hPa | 0 mm | 1.34 m/s, 286° | 83 W/m² | - |
| 1778021402 | 12.22° C | 43% | 1010.4 hPa | 0 mm | 0.89 m/s, 299° | 85 W/m² | - |
| 1778021102 | 12.22° C | 40% | 1010.6 hPa | 0 mm | 1.79 m/s, 291° | 82 W/m² | - |
| 1778020802 | 12.22° C | 42% | 1010.7 hPa | 0 mm | 1.79 m/s, 275° | 87 W/m² | - |
| 1778020502 | 12.22° C | 41% | 1010.7 hPa | 0 mm | 0.89 m/s, 339° | 84 W/m² | - |
| 1778020202 | 12.22° C | 41% | 1010.7 hPa | 0 mm | 0.89 m/s, 299° | 100 W/m² | - |
| 1778019902 | 12.22° C | 44% | 1010.7 hPa | 0 mm | 1.34 m/s, 283° | 102 W/m² | - |
| 1778019602 | 12.22° C | 43% | 1010.5 hPa | 0 mm | 0.89 m/s, 311° | 115 W/m² | - |
| 1778019302 | 12.22° C | 42% | 1010.5 hPa | 0 mm | 1.34 m/s, 308° | 104 W/m² | - |
| 1778019002 | 12.22° C | 43% | 1010.4 hPa | 0 mm | 1.34 m/s, 267° | 107 W/m² | - |
| 1778018702 | 12.22° C | 42% | 1010.5 hPa | 0 mm | 1.79 m/s, 258° | 108 W/m² | - |
| 1778018402 | 12.22° C | 43% | 1010.7 hPa | 0 mm | 1.34 m/s, 281° | 103 W/m² | - |
| 1778018102 | 12.22° C | 43% | 1010.7 hPa | 0 mm | 0.89 m/s, 313° | 104 W/m² | - |
| 1778017802 | 12.22° C | 45% | 1010.7 hPa | 0 mm | 0.89 m/s, 276° | 112 W/m² | - |
| 1778017502 | 12.22° C | 43% | 1010.8 hPa | 0 mm | 1.34 m/s, 255° | 108 W/m² | - |
| 1778017202 | 12.78° C | 44% | 1010.7 hPa | 0 mm | 0.89 m/s, 290° | 133 W/m² | - |
| 1778016902 | 12.78° C | 44% | 1011 hPa | 0 mm | 0.45 m/s, 262° | 141 W/m² | - |
| 1778016602 | 12.22° C | 45% | 1010.8 hPa | 0 mm | 0.89 m/s, 301° | 134 W/m² | - |
| 1778016301 | 12.22° C | 41% | 1010.9 hPa | 0 mm | 1.34 m/s, 305° | 165 W/m² | - |
| 1778016002 | 12.22° C | 43% | 1010.7 hPa | 0 mm | 1.79 m/s, 326° | 120 W/m² | - |
* Rain latest hour (hover to see other rain measurements)
** Current wind speed in m/s (hover to see current wind gust speed)